Sheboygan, WI

6:20 PM CDT on September 25, 2017 (GMT -0500)
Sheboygan County Memorial

Weather History for KSBM - March, 2013

Change the Weather History Date:

Wednesday, March 6, 2013

  Actual Average Record
Temperature  
Mean Temperature 30 °F -  
Max Temperature 34 °F 38 °F 54 °F (1974)
Min Temperature 26 °F 22 °F -2 °F (2014)
Degree Days  
Heating Degree Days 35    
Moisture  
Dew Point 25 °F    
Average Humidity 82    
Maximum Humidity 88    
Minimum Humidity 75    
Precipitation  
Precipitation 0.00 in - - ()
Sea Level Pressure  
Sea Level Pressure 30.24 in    
Wind  
Wind Speed 10 mph (NW)    
Max Wind Speed 16 mph    
Max Gust Speed 23 mph    
Visibility 10 miles    
Events      
Averages and records for this station are not official NWS values.
T = Trace of Precipitation, MM = Missing Value Source: NWS Daily Summary

Daily Weather History Graph

Daily Weather History Graph

Search for Another Location

Airport or City:

Trip Planner

Search our weather history database for the weather conditions in past years. The results will help you decide how hot, cold, wet, or windy it might be!

Date:

Astronomy

Mar. 06, 2013 Rise Set
Actual Time 6:19 AM CST 5:46 PM CST
Civil Twilight 5:50 AM CST 6:15 PM CST
Nautical Twilight 5:17 AM CST 6:48 PM CST
Astronomical Twilight 4:43 AM CST 7:22 PM CST
Moon 2:36 AM CST (3/6) 12:20 PM CST (3/6)
Length of Visible Light 12h 25m
Length of Day
11h 27m
Waning Crescent, 29% of the Moon is Illuminated
Mar 6
Waning Crescent
Mar 11
New
Mar 19
First Quarter
Mar 27
Full
Apr 2
Last Quarter

Hourly Weather History & Observations

Time (CST) Temp. Windchill Dew Point Humidity Pressure Visibility Wind Dir Wind Speed Gust Speed Precip Events Conditions
12:53 AM 26.1 °F 15.6 °F 21.0 °F 81% 30.09 in 10.0 mi North 11.5 mph 23.0 mph N/A   Overcast
1:53 AM 26.1 °F 14.5 °F 21.9 °F 84% 30.11 in 10.0 mi North 13.8 mph - N/A   Overcast
2:53 AM 26.1 °F 14.0 °F 23.0 °F 88% 30.13 in 9.0 mi NNW 15.0 mph - N/A   Overcast
3:53 AM 26.1 °F 15.6 °F 23.0 °F 88% 30.15 in 7.0 mi NNW 11.5 mph - 0.00 in   Overcast
4:53 AM 26.1 °F 13.6 °F 23.0 °F 88% 30.18 in 7.0 mi NNW 16.1 mph - 0.00 in   Overcast
5:53 AM 27.0 °F 15.6 °F 23.0 °F 85% 30.18 in 10.0 mi North 13.8 mph 18.4 mph N/A   Overcast
6:53 AM 28.0 °F 18.6 °F 23.0 °F 81% 30.19 in 10.0 mi North 10.4 mph - N/A   Overcast
7:53 AM 28.9 °F 19.2 °F 24.1 °F 82% 30.22 in 10.0 mi NNW 11.5 mph - N/A   Overcast
8:53 AM 28.9 °F 18.6 °F 25.0 °F 85% 30.24 in 8.0 mi NNW 12.7 mph - N/A   Overcast
9:53 AM 30.0 °F 20.5 °F 26.1 °F 85% 30.25 in 10.0 mi North 11.5 mph - N/A   Overcast
10:17 AM 30.2 °F 21.9 °F 26.6 °F 86% 30.22 in 10.0 mi NNW 9.2 mph - N/A   Overcast
10:53 AM 32.0 °F 23.0 °F 27.0 °F 82% 30.25 in 10.0 mi North 11.5 mph - N/A   Overcast
11:10 AM 33.8 °F 25.8 °F 26.6 °F 75% 30.22 in 10.0 mi North 10.4 mph - N/A   Overcast
11:44 AM 33.8 °F 25.8 °F 28.4 °F 81% 30.22 in 10.0 mi NNW 10.4 mph - N/A   Overcast
11:53 AM 34.0 °F 25.5 °F 28.0 °F 79% 30.25 in 10.0 mi NW 11.5 mph - N/A   Overcast
12:19 PM 33.8 °F 27.0 °F 26.6 °F 75% 30.22 in 10.0 mi WNW 8.1 mph - N/A   Overcast
12:53 PM 33.1 °F 24.9 °F 27.0 °F 78% 30.25 in 10.0 mi NW 10.4 mph - N/A   Overcast
1:53 PM 32.0 °F 23.0 °F 27.0 °F 82% 30.25 in 10.0 mi NW 11.5 mph - N/A   Overcast
2:53 PM 33.1 °F 25.5 °F 27.0 °F 78% 30.25 in 10.0 mi NNW 9.2 mph - N/A   Overcast
4:53 PM 32.0 °F 25.6 °F 26.1 °F 79% 30.27 in 10.0 mi NW 6.9 mph - N/A   Overcast
5:53 PM 32.0 °F 27.5 °F 26.1 °F 79% 30.28 in 10.0 mi NW 4.6 mph - N/A   Overcast
6:53 PM 30.9 °F 27.5 °F 26.1 °F 82% 30.29 in 10.0 mi WNW 3.5 mph - N/A   Overcast
7:01 PM 30.2 °F - 26.6 °F 86% 30.26 in 10.0 mi Calm Calm - N/A   Overcast
7:53 PM 30.0 °F 26.5 °F 26.1 °F 85% 30.30 in 10.0 mi WNW 3.5 mph - N/A   Overcast
8:25 PM 30.2 °F 26.7 °F 26.6 °F 86% 30.27 in 10.0 mi WNW 3.5 mph - N/A   Overcast
8:53 PM 30.9 °F 27.5 °F 26.1 °F 82% 30.30 in 10.0 mi WNW 3.5 mph - N/A   Overcast
9:14 PM 30.2 °F 25.4 °F 26.6 °F 86% 30.27 in 10.0 mi West 4.6 mph - N/A   Overcast
9:37 PM 30.2 °F 26.7 °F 26.6 °F 86% 30.28 in 10.0 mi NW 3.5 mph - N/A   Overcast
9:53 PM 30.9 °F 26.2 °F 25.0 °F 79% 30.31 in 10.0 mi NW 4.6 mph - N/A   Overcast
10:53 PM 30.0 °F 24.1 °F 24.1 °F 79% 30.31 in 10.0 mi WNW 5.8 mph - N/A   Overcast
11:53 PM 28.9 °F 22.8 °F 21.9 °F 75% 30.30 in 10.0 mi WNW 5.8 mph - N/A   Overcast